This is the latest recevied weather packets stored in our database for station/object DG8SF-13. If no packets are shown the sender has not sent any weather packets the latest 10 day(s).
| Time | Temp. | Humidity | Pressure | Rain* | Wind** | Luminosity | Snow |
|---|---|---|---|---|---|---|---|
| 1787844617 | 31.11° C | 48% | 1011.7 hPa | 0 mm | - | - | - |
| 1787844303 | 30.56° C | 44% | 1011.8 hPa | 0 mm | - | - | - |
| 1787843995 | 30.56° C | 43% | 1011.9 hPa | 0 mm | - | - | - |
| 1787843679 | 30.56° C | 43% | 1011.8 hPa | 0 mm | - | - | - |
| 1787843367 | 30.56° C | 43% | 1011.9 hPa | 0 mm | - | - | - |
| 1787843044 | 31.11° C | 41% | 1011.7 hPa | 0 mm | - | - | - |
| 1787842709 | 31.11° C | 43% | 1011.7 hPa | 0 mm | - | - | - |
| 1787842396 | 31.11° C | 43% | 1011.5 hPa | 0 mm | - | - | - |
| 1787842085 | 31.11° C | 44% | 1011.5 hPa | 0 mm | - | - | - |
| 1787841771 | 31.11° C | 44% | 1011.8 hPa | 0 mm | - | - | - |
| 1787841449 | 31.11° C | 44% | 1011.6 hPa | 0 mm | - | - | - |
| 1787841111 | 30.56° C | 45% | 1011.6 hPa | 0 mm | - | - | - |
| 1787840800 | 31.11° C | 46% | 1011.6 hPa | 0 mm | - | - | - |
| 1787840475 | 31.67° C | 45% | 1011.6 hPa | 0 mm | - | - | - |
| 1787840164 | 31.67° C | 46% | 1011.6 hPa | 0 mm | - | - | - |
| 1787839856 | 32.22° C | 46% | 1011.6 hPa | 0 mm | - | - | - |
| 1787839539 | 31.67° C | 45% | 1011.7 hPa | 0 mm | - | - | - |
| 1787839204 | 31.67° C | 45% | 1011.7 hPa | 0 mm | - | - | - |
| 1787838893 | 31.11° C | 45% | 1011.7 hPa | 0 mm | - | - | - |
| 1787838580 | 31.67° C | 43% | 1011.7 hPa | 0 mm | - | - | - |
| 1787838268 | 31.67° C | 43% | 1011.8 hPa | 0 mm | - | - | - |
| 1787837955 | 31.67° C | 44% | 1011.9 hPa | 0 mm | - | - | - |
| 1787837631 | 31.67° C | 45% | 1011.9 hPa | 0 mm | - | - | - |
| 1787837320 | 31.11° C | 46% | 1011.9 hPa | 0 mm | - | - | - |
| 1787837009 | 31.11° C | 45% | 1011.9 hPa | 0 mm | - | - | - |
* Rain latest hour (hover to see other rain measurements)
** Current wind speed in m/s (hover to see current wind gust speed)